Showing default

YAOGAN-32 B, 43643

Orbit data source: Space-Track

YAOGAN-32 B, 43643 is a payload satellite owned by PLA SSF (CN) in SSO that was launched on Tue, 09 Oct 2018 UTC via a CHANG ZHENG 2C/YZ-1S launch vehicle from the Jiuquan Satellite Launch Center, China (JSC). Payload-class satellites include a variety of spacecraft equipped with specific instruments for various scientific and technological missions. These include communications satellites like Starlink; space stations such as the ISS; scientific satellites like the Hubble; Earth observation satellites from companies like Planet Labs, Umbra, and HawkEye 360; GPS; miniature CubeSats for education and research; and military/defense satellites.

Loading next visibility...
Identifier
43643, 2018-077B
Orbit
SSO
Country
Flag of CNCN / PRC
Related business
Manufacturer
SECM?
Mission
Operational Defense Sigint
Bus & Motor
Unknown
Mass
~500 kg wet, ~500 kg dry
Launch date (UTC)
2018-10-09 (7 years ago)
Launch vehicle
CHANG ZHENG 2C/YZ-1S
Launch site
Jiuquan Satellite Launch Center, China (JSC)
Object type
Payload
Rocket body
Debris
Shape & HBR
Box + 2 Pan, 0.5 m
Radar Cross Section
0.446 m², Large (>1 m²)

Expand to show TLE details & history
Last TLE update: 5 hours ago

TLE from 5 hours ago
0 YAOGAN-32 B
1 43643U 18077B   25246.00234524  .00001562  00000-0  31564-3 0  9998
2 43643  97.9372 276.7409 0001394  87.3535 272.7827 14.62690066367845
Epoch: 2025-09-03T00:03Z
TLE epoch observation values (Epoch: 2025-09-03T00:03:22.628Z)
Latitude
-0.00003°
Longitude
-66.48886°
Altitude
687.45 km
Speed
7.513 km/s
True Right ascension
18h 26m 57s
True Declination
0° 00' 00"
Sunlit
Object was in daylight at epoch
Visualization orbit readout
Latitude
Unknown
Longitude
Unknown
Altitude
Unknown
Speed
Unknown
Apparent Right ascension
Unknown
Apparent Declination
Unknown
Sunlit
N/A
Visualization observer readout
Local Sidereal Time
21:13:00
Azimuth
Unknown
Elevation
Unknown
Doppler factor
Unknown
Orbital elements
Apogee altitude
682.551 km
Perigee altitude
680.583 km
Semi-major axis
7,059.704 km
Eccentricity
0.00014
Inclination
97.9372°
RAAN
276.7409°
Arg. of periapsis
87.3535°
True anomaly
272.76674°
Mean anomaly
272.7827°
Eccentric anomaly
272.77472°
Mean motion
3.65901 °/min
Orbital period
98.39 mins
BSTAR
0.00031564
Loading maneuver chart data...
Computing Atmospheric mass density...
Loading historical data...
Loading historical data...
Loading historical data...
Loading historical data...
Loading historical data...
Loading historical data...
Loading historical data...
Other satellites on launch #77 in the year 2018 (2018-10-09 UTC)

Documentation

Showing up to 5 results
|